Time,TemperatureF,DewpointF,PressureIn,WindDirection,WindDirectionDegrees,WindSpeedMPH,WindSpeedGustMPH,Humidity,HourlyPrecipIn,Conditions,Clouds,dailyrainin,SoftwareType,DateUTC
2013-05-06 00:00:00,35.6,32.4,30.00,East,90,0.0,0.0,88,0.00,,SKC,0.00,VWS V14.01,2013-05-06 05:00:00,
2013-05-06 00:20:00,35.1,32.2,30.03,East,90,0.0,0.0,89,0.00,,SKC,0.00,VWS V14.01,2013-05-06 05:20:00,
2013-05-06 00:40:00,34.9,32.0,30.00,East,90,0.0,0.0,89,0.00,,SKC,0.00,VWS V14.01,2013-05-06 05:40:00,
2013-05-06 01:00:00,34.7,32.1,30.00,East,90,0.0,0.0,90,0.00,,SKC,0.00,VWS V14.01,2013-05-06 06:00:00,
2013-05-06 01:20:00,34.5,32.2,30.00,East,90,0.0,0.0,91,0.00,,SKC,0.00,VWS V14.01,2013-05-06 06:20:00,
2013-05-06 01:40:00,34.5,32.4,30.00,East,90,0.0,0.0,92,0.00,,SKC,0.00,VWS V14.01,2013-05-06 06:40:00,
2013-05-06 02:00:00,34.3,32.3,30.00,East,90,0.0,0.0,92,0.00,,SKC,0.00,VWS V14.01,2013-05-06 07:00:00,
2013-05-06 02:20:00,34.0,32.2,30.00,East,90,0.0,0.0,93,0.00,,SKC,0.00,VWS V14.01,2013-05-06 07:20:00,
2013-05-06 02:40:00,34.0,32.2,30.00,East,90,0.0,0.0,93,0.00,,SKC,0.00,VWS V14.01,2013-05-06 07:40:00,
2013-05-06 03:00:00,34.0,32.2,30.00,East,90,0.0,0.0,93,0.00,,SKC,0.00,VWS V14.01,2013-05-06 08:00:00,
2013-05-06 03:20:00,33.8,32.3,30.00,East,90,0.0,2.7,94,0.00,,SKC,0.00,VWS V14.01,2013-05-06 08:20:00,
2013-05-06 03:40:00,33.8,32.3,30.00,East,90,0.0,3.5,94,0.00,,SKC,0.00,VWS V14.01,2013-05-06 08:40:00,
2013-05-06 04:00:00,33.6,32.3,30.00,East,90,0.0,0.0,95,0.00,,SKC,0.00,VWS V14.01,2013-05-06 09:00:00,
2013-05-06 04:20:00,33.6,32.3,30.00,East,90,0.0,0.0,95,0.00,,SKC,0.00,VWS V14.01,2013-05-06 09:20:00,
2013-05-06 04:40:00,33.4,32.2,30.00,East,90,0.0,0.0,95,0.00,,SKC,0.00,VWS V14.01,2013-05-06 09:40:00,
2013-05-06 05:00:00,33.3,32.2,30.00,East,90,0.0,0.0,96,0.00,,SKC,0.00,VWS V14.01,2013-05-06 10:00:00,
2013-05-06 05:20:00,33.6,32.9,30.00,ENE,68,0.0,3.5,97,0.00,,SKC,0.00,VWS V14.01,2013-05-06 10:20:00,
2013-05-06 05:40:00,33.8,33.0,30.00,ENE,68,0.0,0.0,97,0.00,,SKC,0.00,VWS V14.01,2013-05-06 10:40:00,
2013-05-06 06:00:00,33.8,33.0,30.00,ENE,68,0.0,0.0,97,0.00,,SKC,0.00,VWS V14.01,2013-05-06 11:00:00,
2013-05-06 06:20:00,33.8,33.0,30.00,ESE,112,0.0,0.0,97,0.00,,SKC,0.00,VWS V14.01,2013-05-06 11:20:00,
2013-05-06 06:40:00,34.2,33.7,30.00,ENE,68,0.0,0.0,98,0.00,,SKC,0.00,VWS V14.01,2013-05-06 11:40:00,
2013-05-06 07:00:00,34.5,33.8,30.00,ESE,112,0.0,0.0,97,0.00,,SKC,0.00,VWS V14.01,2013-05-06 12:00:00,
2013-05-06 07:20:00,35.6,35.1,30.00,ESE,112,0.0,0.0,98,0.00,,SKC,0.00,VWS V14.01,2013-05-06 12:20:00,
2013-05-06 07:40:00,37.4,36.9,30.03,East,90,0.0,2.7,98,0.00,,SKC,0.00,VWS V14.01,2013-05-06 12:40:00,
2013-05-06 08:00:00,40.6,40.1,30.03,ENE,68,2.3,4.3,98,0.00,,SKC,0.00,VWS V14.01,2013-05-06 13:00:00,
2013-05-06 08:20:00,43.7,42.4,30.03,ENE,68,0.0,4.7,95,0.00,,SKC,0.00,VWS V14.01,2013-05-06 13:20:00,
2013-05-06 08:40:00,45.3,42.3,30.03,East,90,0.0,0.0,89,0.00,,SKC,0.00,VWS V14.01,2013-05-06 13:40:00,
2013-05-06 09:00:00,48.4,44.1,30.03,ESE,112,0.0,3.9,85,0.00,,SKC,0.00,VWS V14.01,2013-05-06 14:00:00,
2013-05-06 09:20:00,53.6,45.5,30.03,South,180,2.6,5.5,74,0.00,,SKC,0.00,VWS V14.01,2013-05-06 14:20:00,
2013-05-06 09:40:00,56.8,46.4,30.03,South,180,0.0,5.9,68,0.00,,SKC,0.00,VWS V14.01,2013-05-06 14:40:00,
2013-05-06 10:00:00,59.2,44.4,30.03,SSE,158,1.8,5.5,58,0.00,,SKC,0.00,VWS V14.01,2013-05-06 15:00:00,
2013-05-06 10:20:00,61.2,44.9,30.03,WNW,292,1.5,6.7,55,0.00,,SKC,0.00,VWS V14.01,2013-05-06 15:20:00,
2013-05-06 10:40:00,62.2,43.4,30.03,ENE,68,0.0,4.7,50,0.00,,SKC,0.00,VWS V14.01,2013-05-06 15:40:00,
2013-05-06 11:00:00,63.7,44.2,30.03,ENE,68,1.0,5.1,49,0.00,,SKC,0.00,VWS V14.01,2013-05-06 16:00:00,
2013-05-06 11:20:00,65.5,44.7,30.03,ENE,68,1.3,5.1,47,0.00,,SKC,0.00,VWS V14.01,2013-05-06 16:20:00,
2013-05-06 11:40:00,65.5,43.6,30.03,West,270,2.6,5.1,45,0.00,,SKC,0.00,VWS V14.01,2013-05-06 16:40:00,
2013-05-06 12:00:00,66.2,44.8,30.00,SW,225,1.8,7.4,46,0.00,,SKC,0.00,VWS V14.01,2013-05-06 17:00:00,
2013-05-06 12:20:00,66.7,43.5,30.00,East,90,1.8,7.0,43,0.00,,SKC,0.00,VWS V14.01,2013-05-06 17:20:00,
2013-05-06 12:40:00,67.3,44.7,30.00,WSW,248,1.5,8.6,44,0.00,,SKC,0.00,VWS V14.01,2013-05-06 17:40:00,
2013-05-06 13:00:00,68.2,44.9,30.00,SSW,202,4.4,7.0,43,0.00,,SKC,0.00,VWS V14.01,2013-05-06 18:00:00,
2013-05-06 13:20:00,70.0,45.2,30.00,East,90,3.3,9.4,41,0.00,,SKC,0.00,VWS V14.01,2013-05-06 18:20:00,
2013-05-06 13:40:00,69.6,43.6,30.00,South,180,2.8,7.4,39,0.00,,SKC,0.00,VWS V14.01,2013-05-06 18:40:00,
2013-05-06 14:00:00,70.9,43.3,30.00,ESE,112,2.3,7.4,37,0.00,,SKC,0.00,VWS V14.01,2013-05-06 19:00:00,
2013-05-06 14:20:00,72.0,44.3,30.00,WSW,248,3.1,6.7,37,0.00,,SKC,0.00,VWS V14.01,2013-05-06 19:20:00,
2013-05-06 14:40:00,71.8,42.7,29.97,SSE,158,2.3,7.0,35,0.00,,SKC,0.00,VWS V14.01,2013-05-06 19:40:00,
2013-05-06 15:00:00,71.1,42.0,30.00,WSW,248,2.3,8.6,35,0.00,,SKC,0.00,VWS V14.01,2013-05-06 20:00:00,
2013-05-06 15:20:00,72.1,43.0,29.97,East,90,4.1,6.3,35,0.00,,SKC,0.00,VWS V14.01,2013-05-06 20:20:00,
2013-05-06 15:40:00,72.1,43.0,29.97,ENE,68,3.1,9.8,35,0.00,,SKC,0.00,VWS V14.01,2013-05-06 20:40:00,
2013-05-06 16:00:00,70.3,42.2,29.97,ENE,68,1.3,5.9,36,0.00,,SKC,0.00,VWS V14.01,2013-05-06 21:00:00,
2013-05-06 16:20:00,70.9,42.6,29.97,SE,135,2.6,7.4,36,0.00,,SKC,0.00,VWS V14.01,2013-05-06 21:20:00,
2013-05-06 16:40:00,71.1,42.0,29.97,ENE,68,2.8,6.7,35,0.00,,SKC,0.00,VWS V14.01,2013-05-06 21:40:00,
2013-05-06 17:00:00,69.6,41.5,29.97,NNW,338,2.8,7.0,36,0.00,,SKC,0.00,VWS V14.01,2013-05-06 22:00:00,
2013-05-06 17:20:00,68.4,40.4,29.97,ENE,68,1.5,7.0,36,0.00,,SKC,0.00,VWS V14.01,2013-05-06 22:20:00,
2013-05-06 17:39:00,66.0,40.4,29.94,NNW,338,1.5,4.3,39,0.00,,SKC,0.00,VWS V14.01,2013-05-06 22:39:00,
2013-05-06 18:00:00,64.9,41.3,29.94,NNE,22,0.0,4.3,42,0.00,,SKC,0.00,VWS V14.01,2013-05-06 23:00:00,
2013-05-06 18:19:00,64.6,41.6,29.97,NNE,22,0.0,5.5,43,0.00,,SKC,0.00,VWS V14.01,2013-05-06 23:19:00,
2013-05-06 18:39:00,64.4,41.4,29.97,NNE,22,3.1,6.7,43,0.00,,SKC,0.00,VWS V14.01,2013-05-06 23:39:00,
2013-05-06 19:00:00,64.0,41.7,29.97,North,0,4.1,6.3,44,0.00,,SKC,0.00,VWS V14.01,2013-05-07 00:00:00,
2013-05-06 19:19:00,63.3,41.6,29.97,ENE,68,0.0,6.7,45,0.00,,SKC,0.00,VWS V14.01,2013-05-07 00:19:00,
2013-05-06 19:40:00,62.1,41.1,29.97,East,90,2.8,6.3,46,0.00,,SKC,0.00,VWS V14.01,2013-05-07 00:40:00,
2013-05-06 20:00:00,60.6,40.8,29.97,ENE,68,0.0,4.7,48,0.00,,SKC,0.00,VWS V14.01,2013-05-07 01:00:00,
2013-05-06 20:19:00,59.0,40.4,29.97,ENE,68,0.0,0.0,50,0.00,,SKC,0.00,VWS V14.01,2013-05-07 01:19:00,
2013-05-06 20:39:00,57.2,40.2,29.97,ENE,68,0.0,0.0,53,0.00,,SKC,0.00,VWS V14.01,2013-05-07 01:39:00,
2013-05-06 21:00:00,55.0,40.1,29.97,ENE,68,0.0,0.0,57,0.00,,SKC,0.00,VWS V14.01,2013-05-07 02:00:00,
2013-05-06 21:20:00,53.2,40.2,29.97,ENE,68,0.0,0.0,61,0.00,,SKC,0.00,VWS V14.01,2013-05-07 02:20:00,
2013-05-06 21:39:00,51.8,40.4,29.97,ENE,68,0.0,0.0,65,0.00,,SKC,0.00,VWS V14.01,2013-05-07 02:39:00,
2013-05-06 22:00:00,50.7,40.6,29.97,ENE,68,0.0,0.0,68,0.00,,SKC,0.00,VWS V14.01,2013-05-07 03:00:00,
2013-05-06 22:19:00,49.3,40.3,29.97,ENE,68,0.0,0.0,71,0.00,,SKC,0.00,VWS V14.01,2013-05-07 03:19:00,
2013-05-06 22:39:00,48.6,40.3,29.97,ENE,68,0.0,0.0,73,0.00,,SKC,0.00,VWS V14.01,2013-05-07 03:39:00,
2013-05-06 23:00:00,47.8,40.3,29.97,ENE,68,0.0,0.0,75,0.00,,SKC,0.00,VWS V14.01,2013-05-07 04:00:00,
2013-05-06 23:19:00,46.9,39.8,29.97,East,90,0.0,0.0,76,0.00,,SKC,0.00,VWS V14.01,2013-05-07 04:19:00,
2013-05-06 23:39:00,46.4,39.6,29.97,East,90,0.0,0.0,77,0.00,,SKC,0.00,VWS V14.01,2013-05-07 04:39:00,